Weather History for PAGN - March, 2014

Change the Weather History Date:

Tuesday, March 4, 2014

  Actual Average (PASI) Record (PASI)
Temperature  
Mean Temperature 22 °F -  
Max Temperature 26 °F 40 °F 50 °F (1957)
Min Temperature 19 °F 31 °F 4 °F (1951)
Degree Days  
Heating Degree Days 42    
Moisture  
Dew Point 4 °F    
Average Humidity 46    
Maximum Humidity 50    
Minimum Humidity 41    
Precipitation  
Precipitation 0.00 in - - ()
Sea Level Pressure  
Sea Level Pressure 30.08 in    
Wind  
Wind Speed 9 mph (NE)    
Max Wind Speed 12 mph    
Max Gust Speed -    
Visibility 10 miles    
Events      
Averages and records for this station are not official NWS values.
T = Trace of Precipitation, MM = Missing Value Source: NWS Daily Summary

Daily Weather History Graph

Daily Weather History Graph

Search for Another Location

Airport or City:

Trip Planner

Search our weather history database for the weather conditions in past years. The results will help you decide how hot, cold, wet, or windy it might be!

Date:

Astronomy

Mar. 04, 2014 Rise Set
Actual Time 6:43 AM AKST 5:37 PM AKST
Civil Twilight 6:04 AM AKST 6:16 PM AKST
Nautical Twilight 5:20 AM AKST 7:01 PM AKST
Astronomical Twilight 4:34 AM AKST 7:46 PM AKST
Moon 7:43 AM AKST 10:51 PM AKST
Length of Visible Light 12h 11m
Length of Day
10h 53m
Waxing Crescent, 16% of the Moon is Illuminated
Mar 4
Waxing Crescent
Mar 8
First Quarter
Mar 16
Full
Mar 23
Last Quarter
Mar 30
New

Hourly Weather History & Observations

Time (AKST) Temp. Windchill Dew Point Humidity Pressure Visibility Wind Dir Wind Speed Gust Speed Precip Events Conditions
12:56 AM 19.0 °F 9.0 °F 2.1 °F 48% 30.05 in 10.0 mi NE 8.1 mph - 0.00 in   Clear
1:56 AM 19.0 °F 8.2 °F 2.1 °F 48% 30.06 in 10.0 mi NE 9.2 mph - N/A   Clear
2:56 AM 19.0 °F 10.0 °F 2.1 °F 48% 30.06 in 10.0 mi ENE 6.9 mph - N/A   Overcast
3:56 AM 19.0 °F 9.0 °F 3.0 °F 50% 30.07 in 10.0 mi NE 8.1 mph - N/A   Overcast
4:56 AM 20.1 °F 10.3 °F 2.1 °F 46% 30.08 in 10.0 mi NE 8.1 mph - N/A   Overcast
5:56 AM 19.0 °F 6.8 °F 2.1 °F 48% 30.09 in 10.0 mi ENE 11.5 mph - N/A   Overcast
6:56 AM 19.0 °F 7.5 °F 2.1 °F 48% 30.10 in 10.0 mi NE 10.4 mph - 0.00 in   Overcast
7:56 AM 19.0 °F 7.5 °F 2.1 °F 48% 30.11 in 10.0 mi NE 10.4 mph - N/A   Overcast
8:56 AM 19.4 °F 7.2 °F 1.4 °F 46% 30.10 in 10.0 mi NE 11.5 mph - N/A   Overcast
9:56 AM 21.0 °F 9.3 °F 1.0 °F 42% 30.12 in 10.0 mi NE 11.5 mph - N/A   Overcast
10:56 AM 23.0 °F 13.9 °F 4.1 °F 44% 30.12 in 10.0 mi NE 8.1 mph - N/A   Overcast
11:56 AM 24.8 °F 16.1 °F 5.0 °F 43% 30.10 in 10.0 mi NE 8.1 mph - N/A   Overcast
12:56 PM 25.2 °F 16.5 °F 6.1 °F 44% 30.11 in 10.0 mi NE 8.1 mph - N/A   Overcast
1:56 PM 26.1 °F 18.4 °F 6.1 °F 43% 30.10 in 10.0 mi North 6.9 mph - N/A   Overcast
2:56 PM 26.6 °F 18.2 °F 6.8 °F 43% 30.08 in 10.0 mi NNE 8.1 mph - N/A   Overcast
3:56 PM 26.1 °F 16.8 °F 7.2 °F 45% 30.09 in 10.0 mi NNE 9.2 mph - N/A   Overcast
4:56 PM 26.1 °F 18.4 °F 5.0 °F 41% 30.09 in 10.0 mi NE 6.9 mph - N/A   Overcast
5:56 PM 24.8 °F 14.6 °F 5.0 °F 43% 30.08 in 10.0 mi NNE 10.4 mph - N/A   Overcast
6:56 PM 23.0 °F 14.7 °F 4.1 °F 44% 30.08 in 10.0 mi ENE 6.9 mph - N/A   Overcast
7:56 PM 22.1 °F 12.8 °F 5.0 °F 48% 30.08 in 10.0 mi NE 8.1 mph - N/A   Overcast
8:56 PM 20.1 °F 10.3 °F 4.1 °F 50% 30.08 in 10.0 mi NE 8.1 mph - N/A   Overcast
9:56 PM 21.0 °F 10.6 °F 4.1 °F 48% 30.07 in 10.0 mi NNE 9.2 mph - N/A   Overcast
10:56 PM 20.1 °F 9.5 °F 3.0 °F 48% 30.06 in 10.0 mi NE 9.2 mph - N/A   Overcast
11:56 PM 19.0 °F 6.8 °F 3.0 °F 50% 30.04 in 10.0 mi NNE 11.5 mph - N/A   Partly Cloudy